Time,TemperatureF,DewpointF,PressureIn,WindDirection,WindDirectionDegrees,WindSpeedMPH,WindSpeedGustMPH,Humidity,HourlyPrecipIn,Conditions,Clouds,dailyrainin,SoftwareType,DateUTC
2013-02-09 00:02:00,23.0,19.0,-100.00,NW,326,1.0,14.0,81,0.00,,,-99.99,,2013-02-09 05:02:00,
2013-02-09 00:12:00,24.0,19.0,-100.00,NNW,348,1.0,14.0,77,0.00,,,-99.99,,2013-02-09 05:12:00,
2013-02-09 00:22:00,23.0,19.0,-100.00,NW,309,1.0,14.0,80,0.00,,,-99.99,,2013-02-09 05:22:00,
2013-02-09 00:32:00,23.0,19.0,-100.00,NW,323,0.0,14.0,80,0.00,,,-99.99,,2013-02-09 05:32:00,
2013-02-09 00:42:00,23.0,19.0,-100.00,NW,323,0.0,14.0,80,0.00,,,-99.99,,2013-02-09 05:42:00,
2013-02-09 00:52:00,22.0,18.0,-100.00,North,352,0.0,14.0,80,0.00,,,-99.99,,2013-02-09 05:52:00,
2013-02-09 01:02:00,22.0,19.0,-100.00,North,352,1.0,14.0,82,0.00,,,-99.99,,2013-02-09 06:02:00,
2013-02-09 01:11:00,22.0,19.0,-100.00,NNW,345,0.0,14.0,82,0.00,,,-99.99,,2013-02-09 06:11:00,
2013-02-09 01:21:00,22.0,18.0,-100.00,NNW,327,1.0,14.0,80,0.00,,,-99.99,,2013-02-09 06:21:00,
2013-02-09 01:32:00,22.0,18.0,-100.00,NW,326,1.0,14.0,81,0.00,,,-99.99,,2013-02-09 06:32:00,
2013-02-09 01:42:00,22.0,18.0,-100.00,NNW,340,0.0,14.0,81,0.00,,,-99.99,,2013-02-09 06:42:00,
2013-02-09 01:52:00,22.0,18.0,-100.00,NNW,331,0.0,14.0,78,0.00,,,-99.99,,2013-02-09 06:52:00,
2013-02-09 02:01:00,22.0,19.0,-100.00,North,2,1.0,14.0,82,0.00,,,-99.99,,2013-02-09 07:01:00,
2013-02-09 02:11:00,22.0,19.0,-100.00,North,2,0.0,14.0,82,0.00,,,-99.99,,2013-02-09 07:11:00,
2013-02-09 02:21:00,22.0,19.0,-100.00,North,2,0.0,14.0,85,0.00,,,-99.99,,2013-02-09 07:21:00,
2013-02-09 02:32:00,22.0,18.0,-100.00,North,350,1.0,14.0,81,0.00,,,-99.99,,2013-02-09 07:32:00,
2013-02-09 02:42:00,22.0,18.0,-100.00,NNW,343,0.0,14.0,82,0.00,,,-99.99,,2013-02-09 07:42:00,
2013-02-09 02:51:00,20.0,18.0,-100.00,NNW,344,1.0,14.0,84,0.00,,,-99.99,,2013-02-09 07:51:00,
2013-02-09 03:01:00,21.0,18.0,-100.00,NNW,344,0.0,14.0,82,0.00,,,-99.99,,2013-02-09 08:01:00,
2013-02-09 03:11:00,21.0,16.0,-100.00,NNW,344,1.0,14.0,81,0.00,,,-99.99,,2013-02-09 08:11:00,
2013-02-09 03:21:00,21.0,18.0,-100.00,NNW,343,1.0,14.0,82,0.00,,,-99.99,,2013-02-09 08:21:00,
2013-02-09 03:32:00,21.0,18.0,-100.00,NNW,336,0.0,14.0,82,0.00,,,-99.99,,2013-02-09 08:32:00,
2013-02-09 03:42:00,21.0,18.0,-100.00,NNW,344,1.0,14.0,82,0.00,,,-99.99,,2013-02-09 08:42:00,
2013-02-09 03:52:00,21.0,18.0,-100.00,NNW,336,1.0,14.0,82,0.00,,,-99.99,,2013-02-09 08:52:00,
2013-02-09 04:03:00,20.0,18.0,-100.00,NNW,338,1.0,14.0,82,0.00,,,-99.99,,2013-02-09 09:03:00,
2013-02-09 04:11:00,21.0,18.0,-100.00,NNW,338,0.0,14.0,85,0.00,,,-99.99,,2013-02-09 09:11:00,
2013-02-09 04:22:00,20.0,18.0,-100.00,NNW,338,0.0,14.0,86,0.00,,,-99.99,,2013-02-09 09:22:00,
2013-02-09 04:32:00,19.0,18.0,-100.00,NNW,340,0.0,14.0,88,0.00,,,-99.99,,2013-02-09 09:32:00,
2013-02-09 04:42:00,19.0,18.0,-100.00,North,357,0.0,14.0,88,0.00,,,-99.99,,2013-02-09 09:42:00,
2013-02-09 04:52:00,19.0,18.0,-100.00,North,2,1.0,14.0,88,0.00,,,-99.99,,2013-02-09 09:52:00,
2013-02-09 05:01:00,19.0,18.0,-100.00,NNE,22,1.0,14.0,88,0.00,,,-99.99,,2013-02-09 10:01:00,
2013-02-09 05:11:00,19.0,16.0,-100.00,NE,48,1.0,14.0,86,0.00,,,-99.99,,2013-02-09 10:11:00,
2013-02-09 05:21:00,19.0,16.0,-100.00,NE,46,2.0,14.0,86,0.00,,,-99.99,,2013-02-09 10:21:00,
2013-02-09 05:32:00,19.0,16.0,-100.00,NE,46,1.0,14.0,86,0.00,,,-99.99,,2013-02-09 10:32:00,
2013-02-09 05:42:00,19.0,16.0,-100.00,NE,46,0.0,14.0,86,0.00,,,-99.99,,2013-02-09 10:42:00,
2013-02-09 05:51:00,18.0,16.0,-100.00,NE,48,0.0,14.0,88,0.00,,,-99.99,,2013-02-09 10:51:00,
2013-02-09 06:01:00,16.0,14.0,-100.00,NE,46,0.0,14.0,89,0.00,,,-99.99,,2013-02-09 11:01:00,
2013-02-09 06:11:00,16.0,14.0,-100.00,NE,46,0.0,14.0,88,0.00,,,-99.99,,2013-02-09 11:11:00,
2013-02-09 06:22:00,19.0,18.0,-100.00,NE,46,0.0,14.0,90,0.00,,,-99.99,,2013-02-09 11:22:00,
2013-02-09 06:32:00,17.0,16.0,-100.00,NE,46,0.0,14.0,90,0.00,,,-99.99,,2013-02-09 11:32:00,
2013-02-09 06:42:00,17.0,16.0,-100.00,NE,46,0.0,14.0,90,0.00,,,-99.99,,2013-02-09 11:42:00,
2013-02-09 06:52:00,18.0,16.0,-100.00,NE,46,0.0,14.0,91,0.00,,,-99.99,,2013-02-09 11:52:00,
2013-02-09 07:02:00,17.0,16.0,-100.00,NNE,14,0.0,14.0,91,0.00,,,-99.99,,2013-02-09 12:02:00,
2013-02-09 07:11:00,17.0,16.0,-100.00,NNE,14,0.0,14.0,91,0.00,,,-99.99,,2013-02-09 12:11:00,
2013-02-09 07:22:00,16.0,14.0,-100.00,NNE,15,0.0,14.0,90,0.00,,,-99.99,,2013-02-09 12:22:00,
2013-02-09 07:32:00,16.0,16.0,-100.00,NNE,14,0.0,14.0,91,0.00,,,-99.99,,2013-02-09 12:32:00,
2013-02-09 07:42:00,17.0,16.0,-100.00,NNE,14,0.0,14.0,91,0.00,,,-99.99,,2013-02-09 12:42:00,
2013-02-09 07:52:00,17.0,16.0,-100.00,NNE,14,0.0,14.0,91,0.00,,,-99.99,,2013-02-09 12:52:00,
2013-02-09 08:02:00,17.0,16.0,-100.00,NNE,15,0.0,14.0,91,0.00,,,-99.99,,2013-02-09 13:02:00,
2013-02-09 08:11:00,16.0,14.0,-100.00,NNE,15,0.0,14.0,91,0.00,,,-99.99,,2013-02-09 13:11:00,
2013-02-09 08:22:00,16.0,16.0,-100.00,NNE,15,0.0,14.0,93,0.00,,,-99.99,,2013-02-09 13:22:00,
2013-02-09 08:32:00,18.0,16.0,-100.00,NNE,15,0.0,14.0,91,0.00,,,-99.99,,2013-02-09 13:32:00,
2013-02-09 08:42:00,18.0,18.0,-100.00,NNE,15,0.0,14.0,91,0.00,,,-99.99,,2013-02-09 13:42:00,
2013-02-09 08:52:00,22.0,19.0,-100.00,NNE,14,0.0,14.0,86,0.00,,,-99.99,,2013-02-09 13:52:00,
2013-02-09 09:01:00,21.0,18.0,-100.00,NNE,12,0.0,14.0,85,0.00,,,-99.99,,2013-02-09 14:01:00,
2013-02-09 09:11:00,23.0,19.0,-100.00,NNE,15,0.0,14.0,80,0.00,,,-99.99,,2013-02-09 14:11:00,
2013-02-09 09:21:00,22.0,16.0,-100.00,NE,55,1.0,14.0,78,0.00,,,-99.99,,2013-02-09 14:21:00,
2013-02-09 09:32:00,22.0,18.0,-100.00,ENE,66,2.0,14.0,81,0.00,,,-99.99,,2013-02-09 14:32:00,
2013-02-09 09:42:00,21.0,18.0,-100.00,ENE,59,3.0,14.0,82,0.00,,,-99.99,,2013-02-09 14:42:00,
2013-02-09 09:52:00,22.0,19.0,-100.00,ENE,74,4.0,14.0,82,0.00,,,-99.99,,2013-02-09 14:52:00,
2013-02-09 10:02:00,22.0,18.0,-100.00,East,93,2.0,14.0,81,0.00,,,-99.99,,2013-02-09 15:02:00,
2013-02-09 10:11:00,22.0,18.0,-100.00,East,83,3.0,14.0,80,0.00,,,-99.99,,2013-02-09 15:11:00,
2013-02-09 10:22:00,24.0,19.0,-100.00,East,94,2.0,14.0,80,0.00,,,-99.99,,2013-02-09 15:22:00,
2013-02-09 10:32:00,25.0,19.0,-100.00,East,101,2.0,14.0,77,0.00,,,-99.99,,2013-02-09 15:32:00,
2013-02-09 10:42:00,24.0,19.0,-100.00,East,86,3.0,14.0,78,0.00,,,-99.99,,2013-02-09 15:42:00,
2013-02-09 10:51:00,25.0,19.0,-100.00,ESE,108,2.0,14.0,77,0.00,,,-99.99,,2013-02-09 15:51:00,
2013-02-09 11:01:00,26.0,19.0,-100.00,SE,132,4.0,14.0,75,0.00,,,-99.99,,2013-02-09 16:01:00,
2013-02-09 11:11:00,25.0,19.0,-100.00,ENE,59,5.0,5.0,77,0.00,,,-99.99,,2013-02-09 16:11:00,
2013-02-09 11:22:00,27.0,21.0,-100.00,ESE,103,3.0,5.0,77,0.00,,,-99.99,,2013-02-09 16:22:00,
2013-02-09 11:32:00,26.0,19.0,-100.00,ENE,77,4.0,6.0,76,0.00,,,-99.99,,2013-02-09 16:32:00,
2013-02-09 11:42:00,26.0,21.0,-100.00,ESE,107,5.0,6.0,76,0.00,,,-99.99,,2013-02-09 16:42:00,
2013-02-09 11:52:00,27.0,21.0,-100.00,SSE,158,3.0,6.0,75,0.00,,,-99.99,,2013-02-09 16:52:00,
2013-02-09 12:01:00,28.0,21.0,-100.00,ESE,111,4.0,6.0,72,0.00,,,-99.99,,2013-02-09 17:01:00,
2013-02-09 12:11:00,29.0,23.0,-100.00,ESE,120,4.0,6.0,75,0.00,,,-99.99,,2013-02-09 17:11:00,
2013-02-09 12:22:00,28.0,21.0,-100.00,SE,134,3.0,6.0,73,0.00,,,-99.99,,2013-02-09 17:22:00,
2013-02-09 12:32:00,29.0,21.0,-100.00,ESE,121,3.0,6.0,71,0.00,,,-99.99,,2013-02-09 17:32:00,
2013-02-09 12:42:00,29.0,21.0,-100.00,ENE,74,3.0,6.0,71,0.00,,,-99.99,,2013-02-09 17:42:00,
2013-02-09 12:52:00,29.0,19.0,-100.00,ESE,115,4.0,6.0,66,0.00,,,-99.99,,2013-02-09 17:52:00,
2013-02-09 13:02:00,30.0,21.0,-100.00,ESE,107,3.0,6.0,66,0.00,,,-99.99,,2013-02-09 18:02:00,
2013-02-09 13:12:00,30.0,21.0,-100.00,SE,127,4.0,6.0,66,0.00,,,-99.99,,2013-02-09 18:12:00,
2013-02-09 13:23:00,30.0,21.0,-100.00,South,169,3.0,6.0,66,0.00,,,-99.99,,2013-02-09 18:23:00,
2013-02-09 13:32:00,31.0,21.0,-100.00,SE,124,4.0,6.0,63,0.00,,,-99.99,,2013-02-09 18:32:00,
2013-02-09 13:42:00,32.0,23.0,-100.00,SE,141,2.0,6.0,66,0.00,,,-99.99,,2013-02-09 18:42:00,
2013-02-09 13:52:00,31.0,21.0,-100.00,SSW,192,2.0,6.0,63,0.00,,,-99.99,,2013-02-09 18:52:00,
2013-02-09 14:02:00,31.0,23.0,-100.00,ESE,114,3.0,6.0,67,0.00,,,-99.99,,2013-02-09 19:02:00,
2013-02-09 14:11:00,32.0,21.0,-100.00,SSE,152,3.0,6.0,62,0.00,,,-99.99,,2013-02-09 19:11:00,
2013-02-09 14:22:00,32.0,23.0,-100.00,East,93,5.0,6.0,64,0.00,,,-99.99,,2013-02-09 19:22:00,
2013-02-09 14:32:00,33.0,21.0,-100.00,SE,125,4.0,6.0,59,0.00,,,-99.99,,2013-02-09 19:32:00,
2013-02-09 14:42:00,33.0,21.0,-100.00,SSE,152,2.0,6.0,58,0.00,,,-99.99,,2013-02-09 19:42:00,
2013-02-09 14:52:00,32.0,21.0,-100.00,SE,132,2.0,6.0,60,0.00,,,-99.99,,2013-02-09 19:52:00,
2013-02-09 15:02:00,32.0,21.0,-100.00,SE,141,3.0,6.0,60,0.00,,,-99.99,,2013-02-09 20:02:00,
2013-02-09 15:11:00,35.0,23.0,-100.00,South,179,1.0,6.0,59,0.00,,,-99.99,,2013-02-09 20:11:00,
2013-02-09 15:22:00,34.0,21.0,-100.00,SSW,194,2.0,6.0,55,0.00,,,-99.99,,2013-02-09 20:22:00,
2013-02-09 15:32:00,33.0,21.0,-100.00,SE,132,4.0,6.0,59,0.00,,,-99.99,,2013-02-09 20:32:00,
2013-02-09 15:42:00,34.0,21.0,-100.00,SE,144,4.0,8.0,59,0.00,,,-99.99,,2013-02-09 20:42:00,
2013-02-09 15:52:00,37.0,25.0,-100.00,SE,138,4.0,8.0,60,0.00,,,-99.99,,2013-02-09 20:52:00,
2013-02-09 16:02:00,37.0,25.0,-100.00,ESE,112,3.0,8.0,59,0.00,,,-99.99,,2013-02-09 21:02:00,
2013-02-09 16:12:00,34.0,23.0,-100.00,SE,144,2.0,8.0,60,0.00,,,-99.99,,2013-02-09 21:12:00,
2013-02-09 16:22:00,35.0,23.0,-100.00,SE,136,4.0,8.0,60,0.00,,,-99.99,,2013-02-09 21:22:00,
2013-02-09 16:32:00,34.0,23.0,-100.00,SSE,159,4.0,8.0,63,0.00,,,-99.99,,2013-02-09 21:32:00,
2013-02-09 16:42:00,34.0,23.0,-100.00,SE,141,4.0,8.0,62,0.00,,,-99.99,,2013-02-09 21:42:00,
2013-02-09 16:52:00,34.0,23.0,-100.00,SE,139,4.0,8.0,63,0.00,,,-99.99,,2013-02-09 21:52:00,
2013-02-09 17:01:00,35.0,23.0,-100.00,SE,132,5.0,8.0,59,0.00,,,-99.99,,2013-02-09 22:01:00,
2013-02-09 17:11:00,34.0,23.0,-100.00,SE,128,6.0,8.0,60,0.00,,,-99.99,,2013-02-09 22:11:00,
2013-02-09 17:22:00,35.0,25.0,-100.00,SE,124,6.0,8.0,62,0.00,,,-99.99,,2013-02-09 22:22:00,
2013-02-09 17:32:00,34.0,21.0,-100.00,SE,141,6.0,8.0,59,0.00,,,-99.99,,2013-02-09 22:32:00,
2013-02-09 17:42:00,33.0,23.0,-100.00,SE,129,5.0,8.0,63,0.00,,,-99.99,,2013-02-09 22:42:00,
2013-02-09 17:52:00,33.0,21.0,-100.00,SE,127,4.0,8.0,62,0.00,,,-99.99,,2013-02-09 22:52:00,
2013-02-09 18:02:00,32.0,21.0,-100.00,ESE,114,4.0,8.0,62,0.00,,,-99.99,,2013-02-09 23:02:00,
2013-02-09 18:11:00,33.0,23.0,-100.00,SE,127,3.0,8.0,64,0.00,,,-99.99,,2013-02-09 23:11:00,
2013-02-09 18:21:00,33.0,23.0,-100.00,East,101,2.0,8.0,66,0.00,,,-99.99,,2013-02-09 23:21:00,
2013-02-09 18:32:00,33.0,25.0,-100.00,East,93,2.0,8.0,68,0.00,,,-99.99,,2013-02-09 23:32:00,
2013-02-09 18:42:00,32.0,23.0,-100.00,East,98,2.0,8.0,68,0.00,,,-99.99,,2013-02-09 23:42:00,
2013-02-09 18:52:00,31.0,23.0,-100.00,East,100,2.0,8.0,69,0.00,,,-99.99,,2013-02-09 23:52:00,
2013-02-09 19:02:00,31.0,25.0,-100.00,East,81,1.0,8.0,73,0.00,,,-99.99,,2013-02-10 00:02:00,
2013-02-09 19:12:00,31.0,25.0,-100.00,East,90,2.0,8.0,75,0.00,,,-99.99,,2013-02-10 00:12:00,
2013-02-09 19:22:00,30.0,25.0,-100.00,East,84,2.0,8.0,76,0.00,,,-99.99,,2013-02-10 00:22:00,
2013-02-09 19:32:00,31.0,25.0,-100.00,East,84,2.0,8.0,76,0.00,,,-99.99,,2013-02-10 00:32:00,
2013-02-09 19:42:00,30.0,25.0,-100.00,East,84,2.0,8.0,77,0.00,,,-99.99,,2013-02-10 00:42:00,
2013-02-09 19:51:00,30.0,25.0,-100.00,East,83,4.0,8.0,78,0.00,,,-99.99,,2013-02-10 00:51:00,
2013-02-09 20:01:00,31.0,27.0,-100.00,East,93,4.0,8.0,80,0.00,,,-99.99,,2013-02-10 01:01:00,
2013-02-09 20:12:00,31.0,27.0,-100.00,East,97,4.0,8.0,78,0.00,,,-99.99,,2013-02-10 01:12:00,
2013-02-09 20:22:00,30.0,25.0,-100.00,ESE,104,5.0,8.0,78,0.00,,,-99.99,,2013-02-10 01:22:00,
2013-02-09 20:32:00,29.0,25.0,-100.00,East,101,5.0,8.0,80,0.00,,,-99.99,,2013-02-10 01:32:00,
2013-02-09 20:42:00,29.0,25.0,-100.00,East,97,6.0,8.0,80,0.00,,,-99.99,,2013-02-10 01:42:00,
2013-02-09 20:51:00,29.0,25.0,-100.00,East,100,6.0,8.0,80,0.00,,,-99.99,,2013-02-10 01:51:00,
2013-02-09 21:01:00,29.0,25.0,-100.00,East,93,6.0,8.0,78,0.00,,,-99.99,,2013-02-10 02:01:00,
2013-02-09 21:11:00,30.0,25.0,-100.00,East,100,5.0,8.0,80,0.00,,,-99.99,,2013-02-10 02:11:00,
2013-02-09 21:22:00,30.0,25.0,-100.00,East,94,6.0,8.0,78,0.00,,,-99.99,,2013-02-10 02:22:00,
2013-02-09 21:32:00,30.0,27.0,-100.00,East,100,5.0,8.0,81,0.00,,,-99.99,,2013-02-10 02:32:00,
2013-02-09 21:42:00,29.0,25.0,-100.00,East,101,4.0,8.0,82,0.00,,,-99.99,,2013-02-10 02:42:00,
2013-02-09 21:52:00,29.0,25.0,-100.00,East,98,5.0,8.0,82,0.00,,,-99.99,,2013-02-10 02:52:00,
2013-02-09 22:02:00,28.0,25.0,-100.00,East,97,6.0,8.0,82,0.00,,,-99.99,,2013-02-10 03:02:00,
2013-02-09 22:11:00,29.0,25.0,-100.00,East,93,5.0,8.0,82,0.00,,,-99.99,,2013-02-10 03:11:00,
2013-02-09 22:22:00,26.0,23.0,-100.00,East,86,3.0,8.0,84,0.00,,,-99.99,,2013-02-10 03:22:00,
2013-02-09 22:32:00,25.0,21.0,-100.00,East,88,2.0,8.0,84,0.00,,,-99.99,,2013-02-10 03:32:00,
2013-02-09 22:42:00,27.0,23.0,-100.00,East,79,4.0,8.0,84,0.00,,,-99.99,,2013-02-10 03:42:00,
2013-02-09 22:52:00,27.0,23.0,-100.00,ENE,73,2.0,8.0,85,0.00,,,-99.99,,2013-02-10 03:52:00,
2013-02-09 23:01:00,26.0,23.0,-100.00,East,83,2.0,8.0,86,0.00,,,-99.99,,2013-02-10 04:01:00,
2013-02-09 23:11:00,27.0,25.0,-100.00,East,80,4.0,8.0,86,0.00,,,-99.99,,2013-02-10 04:11:00,
2013-02-09 23:22:00,26.0,23.0,-100.00,East,80,3.0,8.0,86,0.00,,,-99.99,,2013-02-10 04:22:00,
2013-02-09 23:32:00,26.0,25.0,-100.00,East,80,2.0,8.0,88,0.00,,,-99.99,,2013-02-10 04:32:00,
2013-02-09 23:42:00,26.0,25.0,-100.00,East,83,2.0,8.0,88,0.00,,,-99.99,,2013-02-10 04:42:00,
2013-02-09 23:52:00,26.0,23.0,-100.00,ENE,74,3.0,8.0,86,0.00,,,-99.99,,2013-02-10 04:52:00,